TITAN 3C TRANSTAGE DEB, 3978

Orbit data source: Space-Track

TITAN 3C TRANSTAGE DEB, 3978 is space debris in LEO originally from a launch on Fri, 15 Oct 1965 UTC launched from the Air Force Eastern Test Range (AFETR). Debris objects in space refer to the collection of defunct objects orbiting the Earth. Examples of debris include non-operational satellites, rocket bodies, and fragments generated from explosions, collisions, or faulty payload assembly.

Loading next visibility...
Identifier
3978, 1965-082SE
Orbit
LEO
Country
Flag of USUS
Related business
Manufacturer
Unknown
Mission
Spacecraft
Bus & Motor
Unknown
Mass
Unknown
Launch date (UTC)
1965-10-15 (61 years ago)
Launch vehicle
Unknown
Launch site
Air Force Eastern Test Range (AFETR)
Object type
Payload
Rocket body
Debris
Shape & HBR
Unknown shape, 0.1 m
Radar Cross Section
Small (<0.1 m²)

Expand to show TLE details & history
Last TLE update: 1 day ago

TLE from 1 day ago
0 TITAN 3C TRANSTAGE DEB
1 03978U 65082SE  26106.75809152  .00000570  00000-0  86873-4 0  9998
2 03978  32.5643 277.7182 0033541 133.2767 227.0694 14.70383340437862
Epoch: 2026-04-16T18:11Z
TLE epoch observation values (Epoch: 2026-04-16T18:11:39.107Z)
Latitude
Longitude
159.90421°
Altitude
674.649 km
Speed
7.513 km/s
True Right ascension
18h 30m 52s
True Declination
0° 00' 00"
Sunlit
Object was in daylight at epoch
Visualization orbit readout
Latitude
Unknown
Longitude
Unknown
Altitude
Unknown
Speed
Unknown
Apparent Right ascension
Unknown
Apparent Declination
Unknown
Sunlit
N/A
Visualization observer readout
Local Sidereal Time
01:05:36
Azimuth
Unknown
Elevation
Unknown
Doppler factor
Unknown
Orbital elements
Apogee altitude
687.007 km
Perigee altitude
639.771 km
Semi-major axis
7,041.526 km
Eccentricity
0.00335
Inclination
32.5643°
RAAN
277.7182°
Arg. of periapsis
133.2767°
True anomaly
226.78879°
Mean anomaly
227.0694°
Eccentric anomaly
226.92901°
Mean motion
3.67319 °/min
Orbital period
98.01 mins
BSTAR
0.000086873

Documentation

Showing up to 5 results
|